This demonstration page uses our WeatherBlox Daily Observations layout. Learn more.

Left ArrowRight Arrow

Hourly Observations for May 20, 2015

Temp ( °F °C ) Dew Point ( °F °C ) Humidity (%) Winds ( mph kmh ) Pressure ( in mb ) Visibility ( mi km ) Precip ( " mm )
12:53 am 00:53 Cloudy with Light Rain 43 6.1 42 5.6 97 97 N 7 11 30.24 1024 5 8 0.08 2.03
1:08 am 01:08 Cloudy with Light Rain 43 6 43 6 100 100 N 7 11 30.24 1024 5 8 0.00 0.00
1:53 am 01:53 Cloudy with Mist and Fog 43 6.1 42 5.6 97 97 N 8 13 30.22 1024 5 8 0.01 0.25
2:53 am 02:53 Cloudy with Light Rain 43 6.1 42 5.6 97 97 NNE 12 19 30.21 1023 3 5 0.00 0.03
3:31 am 03:31 Cloudy with Mist and Fog 43 6.1 42 5.6 97 97 NNE 10 17 30.21 1023 3 5 0.00 0.03
3:43 am 03:43 Cloudy with Mist and Fog 43 6.1 42 5.6 97 97 NNE 12 19 30.21 1023 5 8 0.00 0.03
3:53 am 03:53 Cloudy 43 6.1 42 5.6 97 97 NNE 13 20 30.19 1023 7 11 0.00 0.03
4:53 am 04:53 Cloudy 43 6.1 42 5.6 97 97 NNE 9 15 30.19 1023 7 11 0.00 0.00
5:53 am 05:53 Cloudy with Light Rain 43 6.1 42 5.6 97 97 NNE 10 17 30.20 1023 4 6 0.00 0.03
6:53 am 06:53 Cloudy with Mist and Fog 44 6.7 42 5.6 93 93 NNE 8 13 30.22 1023 2 3 0.01 0.25
7:53 am 07:53 Cloudy with Light Rain 44 6.7 42 5.6 93 93 NNE 13 20 30.23 1024 3 4 0.00 0.03
8:42 am 08:42 Cloudy with Mist and Fog 45 7 43 6 93 93 NNE 13 20 30.24 1024 3 5 0.00 0.00
8:51 am 08:51 Cloudy with Mist and Fog 45 7 43 6 93 93 NNE 9 15 30.24 1024 4 6 0.00 0.03
8:53 am 08:53 Cloudy with Mist and Fog 45 7.2 43 6.1 93 93 NNE 10 17 30.25 1024 3 5 0.00 0.03
8:57 am 08:57 Cloudy with Light Rain 44 6.7 42 5.6 93 93 N 10 17 30.27 1025 3 4 0.00 0.03
9:53 am 09:53 Cloudy with Light Rain 45 7.2 43 6.1 93 93 NNE 13 20 30.27 1025 2 3 0.01 0.25
10:10 am 10:10 Cloudy with Mist and Fog 45 7 43 6 93 93 NE 13 20 30.27 1025 3 5 0.00 0.00
10:42 am 10:42 Cloudy with Mist and Fog 46 8 43 6 87 87 NNE 13 20 30.27 1025 3 5 0.00 0.00
10:53 am 10:53 Cloudy with Mist and Fog 47 8.3 44 6.7 90 90 NE 9 15 30.27 1025 6 10 0.00 0.03
11:01 am 11:01 Cloudy with Light Rain 45 7.2 43 6.1 93 93 NNE 10 17 30.27 1025 3 5 0.00 0.03
11:08 am 11:08 Cloudy with Light Rain 46 8 43 6 87 87 NNE 12 19 30.27 1025 2 3 0.00 0.00
11:18 am 11:18 Cloudy with Light Rain 46 8 45 7 93 93 NNE 10 17 30.27 1025 4 6 0.00 0.00
11:41 am 11:41 Cloudy with Light Rain 46 7.8 43 6.1 89 89 NNE 15 24 30.27 1025 4 6 0.00 0.03
11:47 am 11:47 Cloudy with Light Rain 45 7 43 6 93 93 NNE 13 20 30.27 1025 3 4 0.00 0.03
11:50 am 11:50 Cloudy with Light Rain 46 8 43 6 87 87 NNE 10 17 30.27 1025 3 5 0.00 0.03
11:53 am 11:53 Cloudy with Light Rain 46 7.8 44 6.7 93 93 NNE 10 17 30.27 1025 4 6 0.00 0.03
12:07 pm 12:07 Cloudy with Light Rain 46 7.8 43 6.1 89 89 NNE 13 20 30.30 1026 4 6 0.00 0.03
12:16 pm 12:16 Cloudy 46 8 45 7 93 93 NNE 10 17 30.30 1026 8 13 0.00 0.00
12:24 pm 12:24 Cloudy 48 9 45 7 87 87 NNE 10 17 30.27 1025 10 16 0.00 0.00
12:37 pm 12:37 Cloudy with Light Rain 46 7.8 42 5.6 86 86 N 14 22 30.30 1026 4 6 0.01 0.25
12:53 pm 12:53 Cloudy 48 8.9 43 6.1 83 83 N 12 19 30.28 1026 10 16 0.01 0.25
1:25 pm 13:25 Cloudy 49 9.4 44 6.7 83 83 NNE 13 20 30.27 1025 10 16 0.00 0.00
1:33 pm 13:33 Cloudy 48 8.9 43 6.1 83 83 N 12 19 30.27 1025 10 16 0.00 0.00
1:53 pm 13:53 Cloudy 48 8.9 43 6.1 83 83 N 12 19 30.28 1025 10 16 0.00 0.03
2:22 pm 14:22 Cloudy 48 9 43 6 82 82 N 12 19 30.27 1025 10 16 0.00 0.00
2:31 pm 14:31 Cloudy 48 8.9 42 5.6 80 80 N 10 17 30.27 1025 10 16 0.00 0.00
2:48 pm 14:48 Cloudy 48 9 43 6 82 82 N 12 19 30.27 1025 10 16 0.00 0.00
2:53 pm 14:53 Cloudy 50 10 42 5.6 74 74 N 12 19 30.27 1025 10 16 0.00 0.00
3:53 pm 15:53 Cloudy 48 8.9 41 5 77 77 N 15 24 30.29 1026 10 16 0.00 0.00
4:48 pm 16:48 Cloudy 48 9 41 5 76 76 NNE 12 19 30.27 1025 10 16 0.00 0.00
4:53 pm 16:53 Cloudy with Light Rain 47 8.3 41 5 80 80 NNE 9 15 30.29 1026 9 14 0.00 0.03
5:17 pm 17:17 Cloudy 51 10.6 43 6.1 74 74 NNE 12 19 30.27 1025 10 16 0.00 0.03
5:53 pm 17:53 Cloudy 50 10 41 5 71 71 NNE 13 20 30.27 1025 10 16 0.00 0.03
6:18 pm 18:18 Cloudy 48 9 41 5 76 76 NNE 12 19 30.27 1025 10 16 0.00 0.00
6:51 pm 18:51 Cloudy 48 9 39 4 71 71 N 9 15 30.27 1025 10 16 0.00 0.00
6:53 pm 18:53 Cloudy 48 8.9 40 4.4 74 74 N 9 15 30.28 1025 10 16 0.00 0.00
7:53 pm 19:53 Cloudy 48 8.9 40 4.4 74 74 NNE 8 13 30.28 1025 10 16 0.00 0.00
8:53 pm 20:53 Cloudy 47 8.3 40 4.4 77 77 N 5 7 30.29 1026 10 16 0.00 0.00
9:53 pm 21:53 Cloudy 47 8.3 42 5.6 83 83 NNW 3 6 30.30 1026 10 16 0.00 0.00
10:53 pm 22:53 Mostly Cloudy 45 7.2 41 5 86 86 NNW 5 7 30.31 1027 10 16 0.00 0.00
11:53 pm 23:53 Clear 42 5.6 39 3.9 89 89 NW 6 9 30.32 1027 10 16 0.00 0.00

Powered by AerisWeather